Location: Unspecified
(0.0000°N, 0.0000°E)
Time: 18:30:23
(UTC+00:00)

Hubble Space Telescope - Pass Details

Date: 31 May 2019
Orbit: 536 x 540 km, 28.5° (Epoch: 18 August)

Event Time Altitude Azimuth Distance (km) Brightness Sun altitude
Exits shadow 05:10:03 13° 225° (SW) 1,571 2.6 -11.0°
Maximum altitude 05:13:30 52° 150° (SSE) 665 1.3 -10.2°
Drops below altitude 10° 05:17:31 10° 73° (ENE) 1,778 5.1 -9.3°
Sets 05:19:49 0° 68° (ENE) 2,668 6.9 -8.8°
